CYGNUS NG-10 (43704 NORAD) Tracking and Keplerian Element Data

This shows tracking and keplerian element data for the satellite.

Feedback or suggestion? Click here.




ElementValue
Catalog43704
NameCYGNUS NG-10
Epoch Orbit14579
Epoch Day343.59228877
Epoch Year2018
RAAN224.5995
Inclination51.6406
Eccentricity0.0005136
Argument of Perigee127.6506
Mean Anonmoly318.1257
Mean Motion15.54075846
Decay Rate2.464E-05
L11 43704U 18092A 18343.59228877 .00002464 00000-0 44555-4 0 9998
L22 43704 51.6406 224.5995 0005136 127.6506 318.1257 15.54075846145798

Live tracking and technical data element details for CYGNUS NG-10 (NORAD 43704). CYGNUS NG-10 can be tracked NOW for your location showing map with azimuth and elevation plus other details from your city location.

Track the satellite on the map from your city or location and see movement details for azimuth, elevation, latitude, longitude, range, height, and movement on the map or in text.







IsCatalogInMostPopularTable: catalog: 43704, numindb: 19
Update: records affected: 1



GetName: 43704 CYGNUS NG-10

Hit Count: updated at: Tue, 11 Dec 2018 01:53:19 GMT